Weather History for Kansas City International, MO

Change the Weather History Date:

Tuesday, March 25, 2014

  Actual Average Record
Temperature  
Mean Temperature 32 °F 48 °F  
Max Temperature 41 °F 59 °F 90 °F (1907)
Min Temperature 23 °F 36 °F 9 °F (1955)
Degree Days  
Heating Degree Days 33 18  
Month to date heating degree days 672 548  
Since 1 July heating degree days 5238 4593  
Cooling Degree Days 0 0  
Month to date cooling degree days 0 0  
Year to date cooling degree days 0 0  
Moisture  
Dew Point 12 °F    
Average Humidity 54    
Maximum Humidity 85    
Minimum Humidity 22    
Precipitation  
Precipitation 0.00 in 0.08 in 1.84 in (1959)
Month to date precipitation 1.40 1.81  
Year to date precipitation 3.15 4.34  
Snow  
Snow 0.00 in 0.00 in 1.70 in (1955)
Month to date snowfall 3.4 1.7  
Since 1 July snowfall 26.0 17.9  
Snow Depth 0.00 in    
Sea Level Pressure  
Sea Level Pressure 30.32 in    
Wind  
Wind Speed 10 mph (NW)    
Max Wind Speed 24 mph    
Max Gust Speed 31 mph    
Visibility 10 miles    
Events      
T = Trace of Precipitation, MM = Missing Value Source: NWS Daily Summary

Daily Weather History Graph

Daily Weather History Graph

Search for Another Location

Airport:

Trip Planner

Search our weather history database for the weather conditions in past years. The results will help you decide how hot, cold, wet, or windy it might be!

Date:

Astronomy

Mar. 25, 2014 Rise Set
Actual Time 7:14 AM CDT 7:35 PM CDT
Civil Twilight 6:47 AM CDT 8:02 PM CDT
Nautical Twilight 6:16 AM CDT 8:34 PM CDT
Astronomical Twilight 5:43 AM CDT 9:06 PM CDT
Moon 3:35 AM CDT (3/25) 2:09 PM CDT (3/25)
Length of Visible Light 13h 15m
Length of Day
12h 21m
Waning Crescent, 32% of the Moon is Illuminated
Mar 25
Waning Crescent
Mar 30
New
Apr 7
First Quarter
Apr 15
Full
Apr 22
Last Quarter

Hourly Weather History & Observations

Time (CDT) Temp. Windchill Dew Point Humidity Pressure Visibility Wind Dir Wind Speed Gust Speed Precip Events Conditions
12:53 AM 28.9 °F 21.9 °F 25.0 °F 85% 30.27 in 8.0 mi NNW 6.9 mph - N/A   Partly Cloudy
1:53 AM 28.0 °F 20.8 °F 21.0 °F 75% 30.28 in 10.0 mi NW 6.9 mph - N/A   Clear
2:53 AM 28.9 °F 25.2 °F 19.0 °F 67% 30.26 in 10.0 mi WNW 3.5 mph - N/A   Clear
3:53 AM 26.1 °F 18.4 °F 21.0 °F 81% 30.27 in 9.0 mi WNW 6.9 mph - N/A   Mostly Cloudy
4:53 AM 26.1 °F 18.4 °F 21.0 °F 81% 30.29 in 10.0 mi NW 6.9 mph - N/A   Overcast
5:53 AM 26.1 °F 15.6 °F 18.0 °F 71% 30.32 in 10.0 mi NNW 11.5 mph - N/A   Partly Cloudy
6:53 AM 23.0 °F 17.0 °F 17.1 °F 78% 30.34 in 10.0 mi WNW 4.6 mph - N/A   Partly Cloudy
7:53 AM 25.0 °F 16.3 °F 18.0 °F 75% 30.37 in 10.0 mi NW 8.1 mph - N/A   Clear
8:53 AM 28.0 °F 17.5 °F 19.9 °F 72% 30.38 in 10.0 mi NW 12.7 mph - N/A   Clear
9:53 AM 30.9 °F 19.4 °F 18.0 °F 59% 30.39 in 10.0 mi NNW 17.3 mph 26.5 mph N/A   Partly Cloudy
10:53 AM 32.0 °F 19.8 °F 15.1 °F 50% 30.41 in 10.0 mi NW 20.7 mph 29.9 mph N/A   Partly Cloudy
11:53 AM 34.0 °F 22.4 °F 12.0 °F 40% 30.40 in 10.0 mi NW 20.7 mph 29.9 mph N/A   Partly Cloudy
12:53 PM 36.0 °F 26.7 °F 9.0 °F 33% 30.40 in 10.0 mi NW 15.0 mph 25.3 mph N/A   Partly Cloudy
1:53 PM 37.9 °F 28.9 °F 6.1 °F 27% 30.39 in 10.0 mi NW 16.1 mph 23.0 mph N/A   Partly Cloudy
2:53 PM 39.0 °F 31.0 °F 7.0 °F 27% 30.35 in 10.0 mi North 13.8 mph 20.7 mph N/A   Partly Cloudy
3:04 PM 39.0 °F 30.6 °F 7.0 °F 27% 30.31 in 10.0 mi NNW 15.0 mph 24.2 mph N/A   Clear
3:53 PM 39.0 °F 34.8 °F 5.0 °F 24% 30.32 in 10.0 mi WNW 5.8 mph 17.3 mph N/A   Partly Cloudy
4:53 PM 39.9 °F 33.9 °F 6.1 °F 25% 30.31 in 10.0 mi North 9.2 mph 20.7 mph N/A   Partly Cloudy
5:53 PM 39.9 °F 34.5 °F 3.9 °F 22% 30.29 in 10.0 mi NNW 8.1 mph - N/A   Clear
6:53 PM 37.9 °F 32.7 °F 5.0 °F 25% 30.27 in 10.0 mi NNW 6.9 mph - N/A   Clear
7:53 PM 35.1 °F 32.2 °F 3.0 °F 26% 30.26 in 10.0 mi NNE 3.5 mph - N/A   Clear
8:53 PM 33.1 °F - 5.0 °F 31% 30.26 in 10.0 mi Calm Calm - N/A   Clear
9:53 PM 28.9 °F 22.8 °F 7.0 °F 40% 30.27 in 10.0 mi SSE 5.8 mph - N/A   Clear
10:53 PM 28.0 °F 20.0 °F 8.1 °F 43% 30.27 in 10.0 mi SE 8.1 mph - N/A   Clear
11:53 PM 27.0 °F 18.7 °F 8.1 °F 45% 30.25 in 10.0 mi SSE 8.1 mph - N/A   Clear